Location: Newark
(31.5350°N, 35.0986°E)
Time: 17:47:22
(UTC+00:00)

A-11 Canister half - Pass Details

Date: 25 October 2019
Orbit: 1514 x 1686 km, 47.2° (Epoch: 12 November)

Event Time Altitude Azimuth Distance (km) Brightness Sun altitude
Exits shadow 23:47:19 26° 27° (NNE) 2,766 10.5 -51.8°
Drops below altitude 10° 23:51:45 10° 48° (NE) 3,804 11.5 -50.9°
Sets 23:55:10 0° 57° (ENE) 4,764 12.2 -50.2°
